Location: Barcelona
(41.3830°N, 2.1830°E)
Time: 12:38:37
(UTC+01:00)

ISS - Pass Details

Date: 26 October 2020
Orbit: 417 x 420 km, 51.6° (Epoch: 29 October)

Event Time Altitude Azimuth Distance (km) Brightness Sun altitude
Exits shadow 05:07:10 36° 82° (E) 685 -2.2 -24.7°
Drops below altitude 10° 05:09:23 10° 62° (ENE) 1,496 -0.1 -24.3°
Sets 05:11:30 0° 58° (ENE) 2,362 1.1 -23.9°
